SCP
0 0 1 1 1 1 1 1 1 1 1 1 1 1 1 1 0 0 0 0 0 0 0 0 0 0 0 0 0 0 0 0 0 0 0 0 0 0 0 0 0 0 0
0 0 0 0 1 1 1 1 1 1 1 1 1 1 1 1 1 1 0 0 0 0 0 0 1 0 0 0 0 0 0 0 0 0 0 0 0 0 0 0 0 0 0
0 0 0 0 0 1 1 1 2 2 2 1 1 1 1 1 0 0 1 0 0 0 0 0 1 1 1 0 0 0 0 0 0 0 0 0 0 0 0 0 0 0 0
0 0 0 0 0 1 1 2 2 2 2 2 1 1 1 1 1 1 1 1 1 1 1 1 1 1 1 1 0 0 0 0 0 0 0 0 0 0 0 0 0 0 0
0 0 0 0 0 0 0 1 1 1 2 2 1 1 1 1 1 1 1 1 1 1 1 1 1 1 1 1 1 0 0 0 0 0 0 0 0 0 0 0 0 0 0
0 0 0 0 0 0 0 0 1 1 1 1 1 1 1 1 1 1 1 1 1 1 1 1 1 1 1 1 1 1 0 0 0 0 0 0 0 0 0 0 0 0 0
0 0 0 0 0 0 0 0 0 0 1 1 1 1 1 1 0 0 0 0 0 0 1 1 1 2 1 0 1 0 0 0 0 0 0 0 0 0 0 0 0 0 0
0 0 0 0 0 0 0 0 0 0 0 1 1 1 0 0 0 0 0 0 0 0 0 1 1 1 1 1 0 0 0 0 0 0 0 0 0 0 0 0 0 0 0
0 0 0 0 0 0 0 0 0 0 0 0 0 1 0 0 1 0 0 0 0 0 0 0 0 0 0 0 0 0 0 0 0 0 0 0 0 0 0 0 0 0 0
0 0 0 0 0 0 0 0 0 0 0 0 0 0 1 1 0 0 0 0 0 0 0 0 0 0 0 0 0 0 0 0 0 0 0 0 0 0 0 0 0 0 0
0 0 0 0 0 0 0 0 0 0 0 0 0 0 0 0 0 1 0 0 0 0 0 0 0 0 0 0 0 0 0 0 0 0 0 0 0 0 0 0 0 0 0
0 0 0 0 0 0 0 0 0 0 0 0 0 0 0 0 0 0 1 1 0 0 0 0 0 0 0 0 0 0 0 0 0 0 0 0 0 0 0 0 0 0 0
0 0 0 0 0 0 0 0 0 0 0 0 0 0 0 0 0 0 0 0 0 0 0 0 0 0 0 0 0 0 0 0 0 0 0 0 0 0 0 0 0 0 0
0 0 0 0 0 0 0 0 0 0 0 0 0 0 0 0 0 0 0 0 0 0 0 0 0 0 0 0 0 0 0 0 0 0 0 0 0 0 0 0 0 0 0
0 0 0 0 0 0 0 0 0 0 0 0 0 0 0 0 0 0 0 0 0 0 0 0 0 0 0 0 0 0 0 0 0 0 0 0 0 0 0 0 0 0 0
0 0 0 0 0 0 0 0 0 0 0 0 0 0 0 0 0 0 0 0 0 0 0 0 0 0 0 0 0 0 0 0 0 0 0 0 0 0 0 0 0 0 0
0 0 0 0 0 0 0 0 0 -0 -0 0 0 0 0 0 0 0 0 0 0 1 1 0 0 0 0 0 0 0 0 0 0 0 0 0 0 0 0 0 0 0 0
0 0 0 0 0 0 0 0 0 -0 -0 -0 -0 -0 0 0 0 0 0 1 0 1 0 0 0 0 0 0 0 0 0 0 0 0 0 0 0 0 0 0 0 0 0
0 0 0 0 0 0 0 -0 -0 -0 -0 -0 0 -0 0 0 0 0 0 0 0 0 0 0 0 0 0 0 0 0 0 0 0 0 0 0 0 0 0 0 0 0 0
0 0 0 0 0 0 0 0 -0 -0 -0 -0 0 0 0 0 0 0 0 0 0 0 0 0 0 0 0 0 0 0 0 0 0 0 0 0 0 0 0 0 0 0 0
0 0 0 0 0 0 0 0 0 0 0 0 0 0 0 0 0 0 0 0 0 0 0 0 0 0 0 0 0 0 0 0 0 0 0 0 0 0 0 0 0 0 0
0 -0 0 0 0 0 0 0 0 0 0 0 0 0 0 0 0 0 0 0 0 0 0 0 0 0 0 0 0 0 0 0 0 0 0 0 0 0 0 -0 0 -0 0
0 0 0 0 0 0 -0 -0 -0 -0 0 0 0 0 0 0 0 0 0 0 0 0 0 0 0 0 0 0 0 0 0 0 0 0 0 0 0 0 -0 -0 -0 -0 0
-0 -0 0 0 0 0 0 0 -0 0 0 0 0 0 0 0 0 0 0 0 0 0 0 0 0 0 0 0 0 0 0 0 0 0 0 0 -0 0 0 -0 -0 0 -0
-0 -0 -0 -0 -0 -0 -0 0 0 0 0 0 0 0 0 0 0 0 0 0 0 0 0 0 0 0 0 -0 -0 -0 0 0 0 -0 0 -0 -0 -0 -0 0 0 -0 -0
-0 -0 -0 -0 -0 -0 -0 -0 0 0 0 0 0 0 0 0 -0 0 0 0 0 0 0 0 0 0 -0 -0 -0 -0 -0 -0 -0 0 0 0 0 0 0 0 0 0 0
Wind_Speed_500mb
28 30 34 35 38 36 34 32 33 31 29 28 30 32 32 33 34 32 35 39 40 40 33 33 41 43 49 46 39 36 34 33 26 22 24 29 33 35 38 41 40 31 26
29 33 31 33 35 39 40 44 42 41 39 38 36 36 31 30 31 29 29 31 35 43 41 37 40 45 51 51 47 40 43 37 30 25 26 30 32 40 41 43 41 27 25
18 19 23 29 36 37 39 42 47 47 48 46 46 42 40 39 38 39 38 34 36 31 38 37 38 45 52 54 52 49 49 38 35 31 30 33 33 38 43 45 40 32 25
16 16 17 20 23 28 35 40 43 45 46 48 48 44 41 44 41 43 46 40 35 40 42 42 41 43 51 59 59 58 57 51 44 32 34 34 38 38 41 43 40 29 22
21 19 16 14 17 21 25 27 32 44 46 46 43 36 40 46 46 41 43 43 42 41 41 49 46 43 47 55 61 59 64 68 53 31 25 35 33 36 40 40 36 33 26
20 24 24 23 19 17 20 25 26 32 42 43 42 35 41 41 45 42 42 41 41 43 43 41 46 49 49 55 58 61 61 68 68 26 28 31 24 34 32 34 29 23 22
22 24 24 25 27 27 26 24 26 29 30 38 41 36 41 46 43 50 40 39 39 42 44 43 40 44 53 57 57 58 68 78 46 34 39 36 20 30 27 25 21 23 24
34 35 33 31 31 33 34 33 29 29 30 31 27 27 29 30 36 33 31 29 32 32 35 41 42 46 52 58 61 69 49 47 37 39 46 39 23 22 25 19 24 22 18
40 38 34 31 32 33 34 37 37 32 31 33 28 24 20 27 18 23 26 32 36 37 32 38 39 40 41 39 48 69 60 30 38 46 47 26 21 15 22 22 22 19 16
39 37 37 35 31 28 29 31 36 37 35 35 37 29 32 36 28 32 34 31 33 41 44 43 42 32 29 37 48 60 41 29 45 57 25 12 9 16 24 21 17 16 15
48 46 41 37 34 30 27 26 31 34 37 39 32 37 42 35 41 33 37 29 41 36 36 37 37 28 38 42 54 50 27 38 46 35 25 21 6 17 19 20 21 21 19
68 57 49 43 37 32 33 30 28 31 34 37 42 44 35 33 32 28 30 33 32 40 36 35 32 31 35 40 53 59 56 46 26 19 16 13 9 14 25 24 26 24 22
63 61 59 53 46 40 38 37 35 33 40 43 43 47 46 41 38 39 43 38 43 43 37 33 31 30 32 42 46 51 40 31 19 16 14 7 9 11 20 24 25 22 23
64 60 59 61 57 50 45 45 44 43 47 53 54 54 55 52 44 38 39 34 37 44 41 36 29 29 31 38 44 39 23 19 11 3 7 9 10 14 20 22 23 22 22
64 64 61 62 57 50 47 48 51 51 53 58 65 66 62 57 59 52 43 44 43 29 40 39 31 32 34 39 37 25 18 15 13 9 6 9 14 19 21 23 24 25 24
60 57 58 56 53 54 54 54 58 61 61 64 71 77 68 61 56 47 43 44 50 48 31 37 43 39 42 41 32 28 23 21 14 13 15 17 21 23 25 25 23 24 23
65 68 59 60 64 65 63 64 66 68 67 72 79 81 72 61 50 40 42 43 54 48 44 36 40 39 49 47 39 36 28 17 13 19 19 20 23 24 24 25 24 23 22
57 59 62 63 69 71 70 71 72 73 74 79 83 77 67 53 47 42 39 42 51 46 48 54 42 50 54 49 44 39 31 23 19 20 18 23 24 27 26 31 32 33 29
57 60 59 62 61 60 61 64 67 70 74 74 77 67 54 43 45 44 39 42 47 48 46 51 53 58 61 54 51 43 33 25 22 19 19 23 29 30 35 37 34 35 36
60 63 68 74 71 66 62 59 54 58 67 68 65 60 53 43 46 39 40 43 44 50 42 49 60 68 66 63 57 50 41 28 23 19 22 21 28 36 39 39 47 48 43
51 51 51 53 61 63 54 51 52 52 57 58 55 53 49 46 48 46 44 43 46 60 51 57 69 75 74 73 67 56 42 33 26 21 16 18 24 31 38 46 51 54 51
53 54 55 52 53 53 53 56 54 55 52 49 49 48 49 49 49 47 46 47 52 60 60 67 70 68 77 73 70 59 48 43 22 18 17 17 22 29 39 46 49 52 49
50 52 52 56 55 53 55 61 61 62 59 51 51 43 42 44 41 42 40 47 56 51 41 43 62 60 67 71 72 66 49 30 22 24 21 22 19 25 32 39 41 51 56
47 45 46 49 52 58 67 69 58 49 51 48 47 45 43 39 37 39 39 41 39 38 45 38 37 34 51 66 70 55 47 33 31 22 24 18 23 23 26 30 34 45 54
43 46 50 51 57 58 50 37 34 40 46 44 46 48 49 44 41 37 41 34 39 42 43 39 40 32 52 54 65 56 43 38 31 22 17 15 17 28 30 26 31 36 45
44 45 45 42 35 35 28 35 39 44 47 50 47 47 43 43 55 54 39 31 51 66 52 52 48 46 44 67 55 46 39 34 28 21 15 9 7 7 15 27 27 28 35
Wind_Direction_500mb
267 260 258 263 267 266 264 270 276 278 277 278 281 285 287 289 290 288 274 263 261 265 268 269 267 259 258 261 274 277 276 273 276 285 303 318 323 330 331 334 334 337 337
276 277 278 274 271 269 264 265 266 274 276 278 278 277 279 282 289 293 291 274 268 265 257 268 267 259 254 256 265 267 272 268 276 278 295 308 320 325 325 325 327 329 320
311 305 297 286 279 279 279 275 269 269 268 273 276 279 274 276 275 278 286 281 278 268 257 265 274 264 249 255 254 265 269 273 274 279 284 294 312 320 322 316 319 318 327
327 317 314 312 305 293 280 279 275 270 269 271 274 278 276 277 278 272 270 275 277 271 268 268 270 276 264 248 258 255 264 267 269 277 278 304 309 312 311 311 315 315 318
313 316 314 312 310 311 311 299 286 277 268 268 274 276 276 276 275 277 275 269 270 274 278 273 264 268 270 261 256 253 256 250 253 253 283 284 307 308 302 306 313 314 321
335 323 317 318 317 309 300 297 290 281 272 269 266 268 275 283 273 274 281 276 275 276 273 269 265 262 265 267 263 257 242 226 237 239 289 279 305 304 304 303 315 325 319
336 333 328 322 318 314 308 303 293 284 279 275 277 278 276 280 278 274 275 275 274 278 276 272 266 257 266 268 267 255 231 231 235 260 295 294 302 299 305 312 317 309 318
318 319 312 308 316 320 313 310 305 299 284 277 270 277 281 282 281 277 273 271 277 283 286 279 272 270 267 264 258 253 247 227 278 284 290 282 289 303 308 309 308 312 304
306 307 306 307 312 312 310 310 309 304 300 285 273 254 273 271 276 275 276 281 282 286 284 290 279 273 277 272 265 250 243 234 266 270 280 278 295 322 304 316 310 315 328
291 287 291 297 310 319 321 316 305 304 301 296 293 277 262 263 272 278 282 275 276 279 285 282 282 278 281 269 268 249 216 270 277 266 259 278 329 311 318 308 315 332 337
285 277 277 278 286 305 317 318 309 303 305 299 294 293 281 275 270 265 271 269 276 277 279 273 279 281 260 256 229 207 241 260 254 241 245 267 308 315 304 304 313 323 327
287 276 267 266 270 280 293 304 304 310 315 310 299 289 284 280 270 275 271 270 269 276 270 274 276 264 257 245 216 215 223 234 224 227 271 308 300 315 305 313 311 312 313
289 283 266 260 264 269 279 287 295 303 311 313 313 299 284 277 272 269 270 271 271 268 263 264 260 252 245 229 229 223 220 226 242 276 316 333 311 322 312 320 310 302 303
288 280 264 260 264 265 270 277 286 297 303 308 308 309 295 281 271 266 266 259 265 258 252 254 245 233 231 229 227 225 220 248 264 116 20 12 352 345 338 322 318 314 305
283 275 259 256 256 256 263 271 279 286 293 300 305 302 300 284 274 269 264 259 253 255 250 240 227 223 220 219 221 209 192 153 122 97 52 41 26 7 345 341 340 324 311
283 272 262 257 256 259 266 274 281 288 291 294 300 302 295 286 275 268 260 260 252 250 249 246 230 214 206 206 202 180 166 145 126 88 72 37 20 6 358 351 345 338 321
269 268 265 265 266 270 274 278 282 286 291 296 300 299 288 280 272 262 259 255 249 247 238 236 233 207 198 198 182 170 164 151 110 88 60 35 21 17 10 4 0 346 334
260 266 269 269 272 275 277 277 278 283 288 292 296 292 281 272 267 262 257 254 248 243 234 236 209 194 197 194 181 173 161 145 112 86 59 37 29 23 14 15 16 10 355
275 267 261 270 275 277 278 279 281 282 283 287 287 281 269 263 264 259 248 252 243 237 242 231 194 190 189 187 174 169 160 142 111 86 66 49 38 30 29 35 25 22 23
270 267 270 275 277 276 273 271 270 274 277 277 276 270 263 256 254 249 244 243 243 235 237 212 187 183 185 179 178 173 160 145 121 92 66 52 51 48 51 46 40 32 28
275 271 273 273 273 272 267 264 266 271 275 274 268 264 258 252 250 243 234 239 234 231 216 193 183 181 180 180 182 177 164 146 131 103 85 63 59 59 53 45 38 33 32
273 274 271 270 271 265 261 263 270 273 273 267 262 255 253 249 247 240 235 230 236 223 205 192 187 185 186 187 186 173 167 152 141 130 99 78 73 62 50 43 38 38 35
280 276 270 266 264 260 264 268 270 271 269 259 258 254 256 251 241 231 224 217 231 224 238 231 195 193 188 192 183 176 166 142 145 134 111 86 73 58 51 45 35 34 33
275 275 272 271 267 266 268 270 268 261 255 255 253 247 249 250 232 215 217 205 209 202 209 198 188 192 201 189 182 168 150 147 139 129 117 94 78 64 59 49 46 42 40
273 276 279 275 268 268 269 263 254 253 254 254 247 248 249 243 220 214 193 201 203 195 186 190 175 176 191 182 163 155 149 146 141 135 115 111 107 75 59 54 57 49 46
281 280 278 271 267 267 256 255 249 247 250 250 244 246 243 224 199 186 195 199 211 195 191 186 178 171 160 155 160 151 145 144 141 136 152 126 126 114 54 49 59 55 54
Wind_Speed_850mb
28 30 34 35 38 36 34 32 33 31 29 28 30 32 32 33 34 32 35 39 40 40 33 33 41 43 49 46 39 36 34 33 26 22 24 29 33 35 38 41 40 31 26
29 33 31 33 35 39 40 44 42 41 39 38 36 36 31 30 31 29 29 31 35 43 41 37 40 45 51 51 47 40 43 37 30 25 26 30 32 40 41 43 41 27 25
18 19 23 29 36 37 39 42 47 47 48 46 46 42 40 39 38 39 38 34 36 31 38 37 38 45 52 54 52 49 49 38 35 31 30 33 33 38 43 45 40 32 25
16 16 17 20 23 28 35 40 43 45 46 48 48 44 41 44 41 43 46 40 35 40 42 42 41 43 51 59 59 58 57 51 44 32 34 34 38 38 41 43 40 29 22
21 19 16 14 17 21 25 27 32 44 46 46 43 36 40 46 46 41 43 43 42 41 41 49 46 43 47 55 61 59 64 68 53 31 25 35 33 36 40 40 36 33 26
20 24 24 23 19 17 20 25 26 32 42 43 42 35 41 41 45 42 42 41 41 43 43 41 46 49 49 55 58 61 61 68 68 26 28 31 24 34 32 34 29 23 22
22 24 24 25 27 27 26 24 26 29 30 38 41 36 41 46 43 50 40 39 39 42 44 43 40 44 53 57 57 58 68 78 46 34 39 36 20 30 27 25 21 23 24
34 35 33 31 31 33 34 33 29 29 30 31 27 27 29 30 36 33 31 29 32 32 35 41 42 46 52 58 61 69 49 47 37 39 46 39 23 22 25 19 24 22 18
40 38 34 31 32 33 34 37 37 32 31 33 28 24 20 27 18 23 26 32 36 37 32 38 39 40 41 39 48 69 60 30 38 46 47 26 21 15 22 22 22 19 16
39 37 37 35 31 28 29 31 36 37 35 35 37 29 32 36 28 32 34 31 33 41 44 43 42 32 29 37 48 60 41 29 45 57 25 12 9 16 24 21 17 16 15
48 46 41 37 34 30 27 26 31 34 37 39 32 37 42 35 41 33 37 29 41 36 36 37 37 28 38 42 54 50 27 38 46 35 25 21 6 17 19 20 21 21 19
68 57 49 43 37 32 33 30 28 31 34 37 42 44 35 33 32 28 30 33 32 40 36 35 32 31 35 40 53 59 56 46 26 19 16 13 9 14 25 24 26 24 22
63 61 59 53 46 40 38 37 35 33 40 43 43 47 46 41 38 39 43 38 43 43 37 33 31 30 32 42 46 51 40 31 19 16 14 7 9 11 20 24 25 22 23
64 60 59 61 57 50 45 45 44 43 47 53 54 54 55 52 44 38 39 34 37 44 41 36 29 29 31 38 44 39 23 19 11 3 7 9 10 14 20 22 23 22 22
64 64 61 62 57 50 47 48 51 51 53 58 65 66 62 57 59 52 43 44 43 29 40 39 31 32 34 39 37 25 18 15 13 9 6 9 14 19 21 23 24 25 24
60 57 58 56 53 54 54 54 58 61 61 64 71 77 68 61 56 47 43 44 50 48 31 37 43 39 42 41 32 28 23 21 14 13 15 17 21 23 25 25 23 24 23
65 68 59 60 64 65 63 64 66 68 67 72 79 81 72 61 50 40 42 43 54 48 44 36 40 39 49 47 39 36 28 17 13 19 19 20 23 24 24 25 24 23 22
57 59 62 63 69 71 70 71 72 73 74 79 83 77 67 53 47 42 39 42 51 46 48 54 42 50 54 49 44 39 31 23 19 20 18 23 24 27 26 31 32 33 29
57 60 59 62 61 60 61 64 67 70 74 74 77 67 54 43 45 44 39 42 47 48 46 51 53 58 61 54 51 43 33 25 22 19 19 23 29 30 35 37 34 35 36
60 63 68 74 71 66 62 59 54 58 67 68 65 60 53 43 46 39 40 43 44 50 42 49 60 68 66 63 57 50 41 28 23 19 22 21 28 36 39 39 47 48 43
51 51 51 53 61 63 54 51 52 52 57 58 55 53 49 46 48 46 44 43 46 60 51 57 69 75 74 73 67 56 42 33 26 21 16 18 24 31 38 46 51 54 51
53 54 55 52 53 53 53 56 54 55 52 49 49 48 49 49 49 47 46 47 52 60 60 67 70 68 77 73 70 59 48 43 22 18 17 17 22 29 39 46 49 52 49
50 52 52 56 55 53 55 61 61 62 59 51 51 43 42 44 41 42 40 47 56 51 41 43 62 60 67 71 72 66 49 30 22 24 21 22 19 25 32 39 41 51 56
47 45 46 49 52 58 67 69 58 49 51 48 47 45 43 39 37 39 39 41 39 38 45 38 37 34 51 66 70 55 47 33 31 22 24 18 23 23 26 30 34 45 54
43 46 50 51 57 58 50 37 34 40 46 44 46 48 49 44 41 37 41 34 39 42 43 39 40 32 52 54 65 56 43 38 31 22 17 15 17 28 30 26 31 36 45
44 45 45 42 35 35 28 35 39 44 47 50 47 47 43 43 55 54 39 31 51 66 52 52 48 46 44 67 55 46 39 34 28 21 15 9 7 7 15 27 27 28 35
Wind_Direction_850mb
267 260 258 263 267 266 264 270 276 278 277 278 281 285 287 289 290 288 274 263 261 265 268 269 267 259 258 261 274 277 276 273 276 285 303 318 323 330 331 334 334 337 337
276 277 278 274 271 269 264 265 266 274 276 278 278 277 279 282 289 293 291 274 268 265 257 268 267 259 254 256 265 267 272 268 276 278 295 308 320 325 325 325 327 329 320
311 305 297 286 279 279 279 275 269 269 268 273 276 279 274 276 275 278 286 281 278 268 257 265 274 264 249 255 254 265 269 273 274 279 284 294 312 320 322 316 319 318 327
327 317 314 312 305 293 280 279 275 270 269 271 274 278 276 277 278 272 270 275 277 271 268 268 270 276 264 248 258 255 264 267 269 277 278 304 309 312 311 311 315 315 318
313 316 314 312 310 311 311 299 286 277 268 268 274 276 276 276 275 277 275 269 270 274 278 273 264 268 270 261 256 253 256 250 253 253 283 284 307 308 302 306 313 314 321
335 323 317 318 317 309 300 297 290 281 272 269 266 268 275 283 273 274 281 276 275 276 273 269 265 262 265 267 263 257 242 226 237 239 289 279 305 304 304 303 315 325 319
336 333 328 322 318 314 308 303 293 284 279 275 277 278 276 280 278 274 275 275 274 278 276 272 266 257 266 268 267 255 231 231 235 260 295 294 302 299 305 312 317 309 318
318 319 312 308 316 320 313 310 305 299 284 277 270 277 281 282 281 277 273 271 277 283 286 279 272 270 267 264 258 253 247 227 278 284 290 282 289 303 308 309 308 312 304
306 307 306 307 312 312 310 310 309 304 300 285 273 254 273 271 276 275 276 281 282 286 284 290 279 273 277 272 265 250 243 234 266 270 280 278 295 322 304 316 310 315 328
291 287 291 297 310 319 321 316 305 304 301 296 293 277 262 263 272 278 282 275 276 279 285 282 282 278 281 269 268 249 216 270 277 266 259 278 329 311 318 308 315 332 337
285 277 277 278 286 305 317 318 309 303 305 299 294 293 281 275 270 265 271 269 276 277 279 273 279 281 260 256 229 207 241 260 254 241 245 267 308 315 304 304 313 323 327
287 276 267 266 270 280 293 304 304 310 315 310 299 289 284 280 270 275 271 270 269 276 270 274 276 264 257 245 216 215 223 234 224 227 271 308 300 315 305 313 311 312 313
289 283 266 260 264 269 279 287 295 303 311 313 313 299 284 277 272 269 270 271 271 268 263 264 260 252 245 229 229 223 220 226 242 276 316 333 311 322 312 320 310 302 303
288 280 264 260 264 265 270 277 286 297 303 308 308 309 295 281 271 266 266 259 265 258 252 254 245 233 231 229 227 225 220 248 264 116 20 12 352 345 338 322 318 314 305
283 275 259 256 256 256 263 271 279 286 293 300 305 302 300 284 274 269 264 259 253 255 250 240 227 223 220 219 221 209 192 153 122 97 52 41 26 7 345 341 340 324 311
283 272 262 257 256 259 266 274 281 288 291 294 300 302 295 286 275 268 260 260 252 250 249 246 230 214 206 206 202 180 166 145 126 88 72 37 20 6 358 351 345 338 321
269 268 265 265 266 270 274 278 282 286 291 296 300 299 288 280 272 262 259 255 249 247 238 236 233 207 198 198 182 170 164 151 110 88 60 35 21 17 10 4 0 346 334
260 266 269 269 272 275 277 277 278 283 288 292 296 292 281 272 267 262 257 254 248 243 234 236 209 194 197 194 181 173 161 145 112 86 59 37 29 23 14 15 16 10 355
275 267 261 270 275 277 278 279 281 282 283 287 287 281 269 263 264 259 248 252 243 237 242 231 194 190 189 187 174 169 160 142 111 86 66 49 38 30 29 35 25 22 23
270 267 270 275 277 276 273 271 270 274 277 277 276 270 263 256 254 249 244 243 243 235 237 212 187 183 185 179 178 173 160 145 121 92 66 52 51 48 51 46 40 32 28
275 271 273 273 273 272 267 264 266 271 275 274 268 264 258 252 250 243 234 239 234 231 216 193 183 181 180 180 182 177 164 146 131 103 85 63 59 59 53 45 38 33 32
273 274 271 270 271 265 261 263 270 273 273 267 262 255 253 249 247 240 235 230 236 223 205 192 187 185 186 187 186 173 167 152 141 130 99 78 73 62 50 43 38 38 35
280 276 270 266 264 260 264 268 270 271 269 259 258 254 256 251 241 231 224 217 231 224 238 231 195 193 188 192 183 176 166 142 145 134 111 86 73 58 51 45 35 34 33
275 275 272 271 267 266 268 270 268 261 255 255 253 247 249 250 232 215 217 205 209 202 209 198 188 192 201 189 182 168 150 147 139 129 117 94 78 64 59 49 46 42 40
273 276 279 275 268 268 269 263 254 253 254 254 247 248 249 243 220 214 193 201 203 195 186 190 175 176 191 182 163 155 149 146 141 135 115 111 107 75 59 54 57 49 46
281 280 278 271 267 267 256 255 249 247 250 250 244 246 243 224 199 186 195 199 211 195 191 186 178 171 160 155 160 151 145 144 141 136 152 126 126 114 54 49 59 55 54